XW-3 (CAS-9)

Last updated on Sun Apr 12 2026 00:03:15 GMT+0000 (Coordinated Universal Time)

1 50466U 21131B 26101.54948566 .00000379 00000+0 13073-3 0 9991 2 50466 98.4942 194.3133 0003018 308.8575 51.2344 14.41293821225510
UTC large
Height (km)
Speed (km/s)
/
Latitude / Longitude
Inclination (degrees)
Orbital Period (minutes)
Azimuth
Elevation
Range (km)
Doppler Factor

Next 0 passes for location: London (51.5072 / 0.1276)

Sorry there are no passes over London.